FENGYUN 1C DEB, 38510

Orbit data source: Space-Track

FENGYUN 1C DEB, 38510 is space debris in SSO originally from a launch on Mon, 10 May 1999 UTC launched from the Taiyaun Space Center, China (TSC). Fengyun 1C debris stems from the Chinese weather satellite Fengyun-1C, which was intentionally destroyed by a Chinese anti-satellite missile in 2007. This event dramatically increased the amount of space debris, with thousands of trackable fragments posing hazards to satellites and human spaceflight. The Fengyun 1C debris cloud has become a focal point in discussions about space sustainability and the need for international regulations to prevent the creation of new debris.

Loading next visibility...
Identifier
38510, 1999-025ESV
Orbit
SSO
Country
Flag of CNCN / PRC
Related business
Manufacturer
Unknown
Mission
Spacecraft
Bus & Motor
Unknown
Mass
Unknown
Launch date (UTC)
1999-05-10 (27 years ago)
Launch vehicle
Unknown
Launch site
Taiyaun Space Center, China (TSC)
Object type
Payload
Rocket body
Debris
Shape & HBR
Unknown shape, 0.1 m
Radar Cross Section
Small (<0.1 m²)

Expand to show TLE details & history
Last TLE update: 1 week ago

TLE from 1 week ago
0 FENGYUN 1C DEB
1 38510U 99025ESV 26098.28308619  .00000932  00000-0  49268-3 0  9990
2 38510  98.5998 107.9214 0098091 176.1411 184.0540 14.13646013903169
Epoch: 2026-04-08T06:47Z
TLE epoch observation values (Epoch: 2026-04-08T06:47:38.646Z)
Latitude
-0.00011°
Longitude
169.46272°
Altitude
920.543 km
Speed
7.355 km/s
True Right ascension
07h 11m 41s
True Declination
0° 00' 00"
Sunlit
Object was in daylight at epoch
Visualization orbit readout
Latitude
Unknown
Longitude
Unknown
Altitude
Unknown
Speed
Unknown
Apparent Right ascension
Unknown
Apparent Declination
Unknown
Sunlit
N/A
Visualization observer readout
Local Sidereal Time
01:53:33
Azimuth
Unknown
Elevation
Unknown
Doppler factor
Unknown
Orbital elements
Apogee altitude
914.927 km
Perigee altitude
773.24 km
Semi-major axis
7,222.22 km
Eccentricity
0.00981
Inclination
98.5998°
RAAN
107.9214°
Arg. of periapsis
176.1411°
True anomaly
183.97549°
Mean anomaly
184.054°
Eccentric anomaly
184.01465°
Mean motion
3.5362 °/min
Orbital period
101.8 mins
BSTAR
0.00049268
Loading maneuver chart data...
Computing Atmospheric mass density...
Loading historical data...
Loading historical data...
Loading historical data...
Loading historical data...
Loading historical data...
Loading historical data...
Loading historical data...

Documentation

Showing up to 5 results
|